Clarksburg, WV

3:52 PM EST on December 11, 2019 (GMT -0500)
Benedum

Weather History for KCKB - June, 2019

Change the Weather History Date:

Friday, June 14, 2019

  Actual Average Record
Temperature  
Mean Temperature 62 °F -  
Max Temperature 72 °F 80 °F 95 °F (1967)
Min Temperature 53 °F 56 °F 41 °F (1933)
Degree Days  
Heating Degree Days 2    
Growing Degree Days 12 (Base 50)    
Moisture  
Dew Point 46 °F    
Average Humidity 61    
Maximum Humidity 83    
Minimum Humidity 37    
Precipitation  
Precipitation 0.01 in - - ()
Sea Level Pressure  
Sea Level Pressure 30.06 in    
Wind  
Wind Speed 11 mph ()    
Max Wind Speed 18 mph    
Max Gust Speed 26 mph    
Visibility 9.7 miles    
Events Rain    
Averages and records for this station are not official NWS values.
T = Trace of Precipitation, MM = Missing Value Source: Averaged Metar Reports

Daily Weather History Graph

Daily Weather History Graph

Search for Another Location

Airport or City:

Astronomy

Jun. 14, 2019 Rise Set
Actual Time 5:53 AM EDT 8:48 PM EDT
Civil Twilight 5:21 AM EDT 9:21 PM EDT
Nautical Twilight 4:40 AM EDT 10:01 PM EDT
Astronomical Twilight 3:53 AM EDT 10:48 PM EDT
Moon 6:09 PM EDT (6/14) 4:09 AM EDT (6/14)
Length of Visible Light 15h 59m
Length of Day
14h 55m
Waxing Gibbous, 92% of the Moon is Illuminated
Jun 14
Waxing Gibbous
Jun 17
Full
Jun 25
Last Quarter
Jul 2
New
Jul 9
First Quarter

Hourly Weather History & Observations

Time (EDT) Temp. Dew Point Humidity Pressure Visibility Wind Dir Wind Speed Gust Speed Precip Events Conditions
12:02 AM 55.9 °F 46.0 °F 69% 29.96 in 10.0 mi WSW 11.5 mph 19.6 mph N/A   Overcast
12:28 AM 55.0 °F 46.0 °F 72% 29.97 in 10.0 mi WSW 13.8 mph 21.9 mph 0.00 in Rain Light Rain
12:53 AM 55.0 °F 46.0 °F 72% 29.94 in 10.0 mi WSW 16.1 mph 25.3 mph 0.00 in Rain Light Rain
1:40 AM 53.1 °F 48.0 °F 83% 29.99 in 8.0 mi WSW 17.3 mph 23.0 mph 0.00 in Rain Light Rain
1:53 AM 53.1 °F 48.0 °F 83% 29.97 in 7.0 mi WSW 18.4 mph 26.5 mph 0.01 in Rain Light Rain
2:00 AM 53.1 °F 48.0 °F 83% 29.99 in 6.0 mi WSW 18.4 mph 26.5 mph 0.00 in Rain Light Rain
2:21 AM 53.1 °F 46.9 °F 80% 29.99 in 10.0 mi West 15.0 mph 21.9 mph 0.00 in Rain Light Rain
2:53 AM 53.1 °F 46.9 °F 80% 29.97 in 10.0 mi WSW 11.5 mph 20.7 mph 0.00 in Rain Light Rain
3:53 AM 53.1 °F 46.0 °F 77% 29.99 in 10.0 mi WSW 9.2 mph - 0.00 in   Overcast
4:20 AM 53.1 °F 46.0 °F 77% 30.02 in 10.0 mi WSW 8.1 mph - N/A   Overcast
4:53 AM 53.1 °F 46.0 °F 77% 30.01 in 10.0 mi WSW 8.1 mph - N/A   Overcast
5:53 AM 53.1 °F 45.0 °F 74% 30.05 in 10.0 mi West 9.2 mph - N/A   Overcast
6:53 AM 53.1 °F 44.1 °F 71% 30.08 in 10.0 mi West 8.1 mph - N/A   Clear
7:53 AM 55.0 °F 44.1 °F 67% 30.10 in 10.0 mi WSW 9.2 mph - N/A   Clear
8:53 AM 57.9 °F - N/A% 30.13 in 10.0 mi WSW 11.5 mph - N/A   Clear
9:53 AM 61.0 °F 46.0 °F 58% 30.15 in 10.0 mi WSW 12.7 mph - N/A   Clear
10:53 AM 64.9 °F 46.9 °F 52% 30.14 in 10.0 mi WSW 11.5 mph - N/A   Clear
11:53 AM 68.0 °F 46.9 °F 47% 30.15 in 10.0 mi WNW 11.5 mph 16.1 mph N/A   Partly Cloudy
12:53 PM 71.1 °F 46.9 °F 42% 30.14 in - North - - N/A   Unknown
1:53 PM 70.0 °F 45.0 °F 41% 30.14 in 10.0 mi West 12.7 mph 19.6 mph N/A   Mostly Cloudy
2:53 PM 70.0 °F 45.0 °F 41% 30.14 in 10.0 mi WSW 12.7 mph 19.6 mph N/A   Mostly Cloudy
3:53 PM 70.0 °F 45.0 °F 41% 30.12 in 10.0 mi Variable 5.8 mph - N/A   Scattered Clouds
4:53 PM 72.0 °F 46.0 °F 40% 30.10 in 10.0 mi SW 12.7 mph 17.3 mph N/A   Scattered Clouds
5:53 PM 72.0 °F 45.0 °F 38% 30.08 in 10.0 mi SSW 11.5 mph - N/A   Partly Cloudy
6:53 PM 72.0 °F 44.1 °F 37% 30.07 in 10.0 mi Variable 5.8 mph - N/A   Clear
7:53 PM 68.0 °F 46.0 °F 45% 30.09 in 10.0 mi SW 9.2 mph - N/A   Clear
8:53 PM 64.9 °F 46.9 °F 52% 30.10 in 10.0 mi South 4.6 mph - N/A   Clear
9:53 PM 62.1 °F 48.0 °F 60% 30.10 in 10.0 mi SSE 3.5 mph - N/A   Clear